This demonstration page uses our WeatherBlox Daily Observations layout. Learn more.

Left ArrowRight Arrow

38.83388, -104.82136

Hourly Observations for January 2, 2015

Temp ( °F °C ) Dew Point ( °F °C ) Humidity (%) Winds ( mph kmh ) Pressure ( in mb ) Visibility ( mi km ) Precip ( " mm )
12:56 am 00:56 Mostly Cloudy 17 -8.1 13 -10.8 81 81 NW 5 7 30.18 1022 10 16 N/A
1:56 am 01:56 Partly Cloudy 17 -8.6 12 -11.1 82 82 S 3 6 30.18 1022 10 16 N/A
2:56 am 02:56 Clear 19 -7.2 12 -11.2 73 73 VRB 1 2 30.16 1021 10 16 N/A
3:56 am 03:56 Clear 18 -7.8 11 -11.6 74 74 WNW 6 9 30.16 1021 10 16 N/A
4:56 am 04:56 Clear 18 -7.8 11 -11.4 76 76 WNW 5 7 30.16 1021 10 16 0.00 0.00
5:56 am 05:56 Clear 18 -7.7 11 -11.6 74 74 VRB 2 4 30.17 1022 10 16 N/A
6:56 am 06:56 Clear 18 -7.7 11 -11.7 73 73 VRB 2 4 30.16 1021 10 16 N/A
7:56 am 07:56 Sunny 20 -6.5 11 -11.4 69 69 NE 1 2 30.16 1021 10 16 N/A
8:56 am 08:56 Sunny 23 -5.1 15 -9.2 73 73 VRB 2 4 30.16 1021 10 16 0.02 0.51
9:56 am 09:56 Sunny 26 -3.5 18 -7.9 72 72 N 2 4 30.14 1021 10 16 0.06 1.52
10:56 am 10:56 Sunny 26 -3.4 17 -8.2 70 70 VRB 2 4 30.09 1019 10 16 0.00 0.00
11:56 am 11:56 Sunny 28 -2 18 -7.8 65 65 VRB 1 2 30.05 1018 10 16 N/A
12:56 pm 12:56 Sunny 30 -0.9 19 -7.3 62 62 ESE 3 6 30.01 1016 10 16 N/A
1:56 pm 13:56 Sunny 31 -0.4 22 -5.8 67 67 SE 7 11 29.97 1015 10 16 0.00 0.00
2:56 pm 14:56 Sunny 29 -1.4 20 -6.5 69 69 SSE 7 11 29.97 1015 10 16 N/A
3:56 pm 15:56 Sunny 27 -2.8 19 -7.5 70 70 S 1 2 29.98 1015 10 16 N/A
4:56 pm 16:56 Clear 28 -2.4 18 -8 66 66 SSE 7 11 29.96 1015 10 16 0.00 0.00
5:56 pm 17:56 Clear 26 -3.3 18 -8 70 70 S 8 13 29.98 1015 10 16 N/A
6:56 pm 18:56 Clear 26 -3.3 17 -8.3 69 69 S 6 9 29.96 1015 10 16 N/A
7:56 pm 19:56 Clear 24 -4.7 16 -8.9 73 73 WNW 3 6 29.98 1015 10 16 N/A
8:56 pm 20:56 Mostly Cloudy 24 -4.2 18 -8 75 75 SSE 6 9 29.96 1015 10 16 N/A
9:56 pm 21:56 Mostly Cloudy 22 -5.6 17 -8.6 80 80 NNW 5 7 29.93 1014 10 16 N/A
10:56 pm 22:56 Mostly Cloudy 26 -3.6 17 -8.5 69 69 WNW 6 9 29.88 1012 10 16 N/A
11:56 pm 23:56 Mostly Cloudy 26 -3.4 15 -9.5 63 63 SW 1 2 29.85 1011 10 16 N/A

Powered by AerisWeather